Cullman, AL

2:56 PM CDT on March 27, 2017 (GMT -0500)
Cullman

Weather History for K3A1 - January, 2013

Change the Weather History Date:

Thursday, January 17, 2013

  Actual Average (KHSV) Record (KHSV)
Temperature  
Mean Temperature 34 °F -  
Max Temperature 37 °F 47 °F 76 °F (1943)
Min Temperature 31 °F 30 °F -4 °F (1982)
Degree Days  
Heating Degree Days 31    
Moisture  
Dew Point 33 °F    
Average Humidity 92    
Maximum Humidity 99    
Minimum Humidity 80    
Precipitation  
Precipitation 0.37 in - - ()
Sea Level Pressure  
Sea Level Pressure 30.06 in    
Wind  
Wind Speed 9 mph (NNW)    
Max Wind Speed 14 mph    
Max Gust Speed 31 mph    
Visibility 6 miles    
Events Rain , Snow , Thunderstorm    
Averages and records for this station are not official NWS values.
T = Trace of Precipitation, MM = Missing Value Source: NWS Daily Summary

Daily Weather History Graph

Daily Weather History Graph

Search for Another Location

Airport or City:

Trip Planner

Search our weather history database for the weather conditions in past years. The results will help you decide how hot, cold, wet, or windy it might be!

Date:

Astronomy

Jan. 17, 2013 Rise Set
Actual Time 6:52 AM CST 5:02 PM CST
Civil Twilight 6:25 AM CST 5:30 PM CST
Nautical Twilight 5:54 AM CST 6:00 PM CST
Astronomical Twilight 5:24 AM CST 6:30 PM CST
Moon 10:18 AM CST (1/17) 11:33 PM CST (1/17)
Length of Visible Light 11h 04m
Length of Day
10h 10m
Waxing Crescent, 38% of the Moon is Illuminated
Jan 17
Waxing Crescent
Jan 18
First Quarter
Jan 26
Full
Feb 3
Last Quarter
Feb 10
New

Hourly Weather History & Observations

Time (CST) Temp. Windchill Dew Point Humidity Pressure Visibility Wind Dir Wind Speed Gust Speed Precip Events Conditions
12:15 AM 36.5 °F 31.0 °F 36.1 °F 99% 30.03 in 4.0 mi North 6.9 mph - N/A   Overcast
12:35 AM 36.5 °F 31.0 °F 36.1 °F 99% 30.02 in 4.0 mi North 6.9 mph - N/A   Overcast
12:55 AM 36.5 °F 31.0 °F 36.1 °F 99% 30.02 in 4.0 mi NNW 6.9 mph - N/A   Overcast
1:15 AM 36.7 °F 29.9 °F 36.1 °F 98% 30.01 in 4.0 mi North 9.2 mph - N/A   Drizzle
1:35 AM 36.7 °F 29.9 °F 36.3 °F 99% 30.01 in 3.0 mi North 9.2 mph - N/A   Drizzle
1:55 AM 36.9 °F 29.6 °F 36.5 °F 99% 30.01 in 4.0 mi North 10.4 mph - 0.01 in   Overcast
2:15 AM 36.9 °F 29.6 °F 36.5 °F 99% 29.99 in 4.0 mi North 10.4 mph - N/A   Overcast
2:35 AM 36.9 °F 29.6 °F 36.5 °F 99% 29.99 in 5.0 mi North 10.4 mph 16.1 mph N/A Rain Rain
2:55 AM 36.9 °F 30.1 °F 36.5 °F 99% 29.98 in 5.0 mi North 9.2 mph - N/A   Light Drizzle
3:15 AM 36.7 °F 29.9 °F 36.3 °F 99% 29.98 in 4.0 mi North 9.2 mph 16.1 mph N/A Rain Light Rain
3:35 AM 36.5 °F 29.2 °F 36.1 °F 99% 29.97 in 4.0 mi North 10.4 mph - N/A   Light Drizzle
3:55 AM 36.5 °F 28.2 °F 36.0 °F 98% 29.96 in 4.0 mi North 12.7 mph 17.3 mph N/A Rain Light Rain
4:15 AM 36.5 °F 29.7 °F 36.0 °F 98% 29.96 in 4.0 mi North 9.2 mph - N/A   Light Drizzle
4:35 AM 36.5 °F 29.2 °F 35.8 °F 97% 29.96 in 4.0 mi North 10.4 mph - N/A   Drizzle
4:55 AM 36.3 °F 28.9 °F 35.6 °F 97% 29.97 in 3.0 mi North 10.4 mph - 0.01 in   Drizzle
5:15 AM 36.0 °F 27.5 °F 35.2 °F 97% 29.96 in 3.0 mi North 12.7 mph 18.4 mph 0.01 in Rain Rain
5:35 AM 35.6 °F 28.6 °F 34.7 °F 97% 29.96 in 4.0 mi North 9.2 mph 16.1 mph 0.01 in   Light Drizzle
6:15 AM 35.2 °F 28.1 °F 33.3 °F 92% 29.95 in 10.0 mi North 9.2 mph 17.3 mph N/A Rain Rain
6:35 AM 35.1 °F 26.9 °F 32.9 °F 92% 29.93 in 10.0 mi North 11.5 mph 19.6 mph N/A   Overcast
6:55 AM 35.1 °F 26.9 °F 32.9 °F 92% 29.93 in 7.0 mi North 11.5 mph 16.1 mph N/A   Drizzle
7:15 AM 34.9 °F 27.7 °F 32.7 °F 92% 29.91 in 10.0 mi North 9.2 mph - N/A   Light Drizzle
7:35 AM 35.2 °F 28.1 °F 32.9 °F 91% 29.92 in 10.0 mi North 9.2 mph - N/A   Mostly Cloudy
7:55 AM 35.1 °F 27.4 °F 32.7 °F 91% 29.91 in 10.0 mi North 10.4 mph 16.1 mph N/A   Overcast
8:15 AM 34.5 °F 26.7 °F 31.8 °F 90% 29.92 in 10.0 mi NNW 10.4 mph 23.0 mph N/A   Mostly Cloudy
8:35 AM 34.0 °F 24.6 °F 29.8 °F 85% 29.94 in 10.0 mi NNW 13.8 mph 25.3 mph N/A   Light Drizzle
8:55 AM 33.3 °F 23.7 °F 28.6 °F 83% 29.94 in 1.8 mi NNW 13.8 mph 24.2 mph 0.01 in Rain Light Rain
9:15 AM 32.5 °F 23.2 °F 29.3 °F 88% 29.97 in 1.5 mi NNW 12.7 mph 20.7 mph 0.03 in Snow Light Snow
9:35 AM 32.5 °F 24.2 °F 30.2 °F 91% 29.98 in 2.5 mi NNW 10.4 mph 18.4 mph 0.05 in   Overcast
9:55 AM 32.2 °F 25.0 °F 30.7 °F 94% 29.98 in 2.0 mi NNW 8.1 mph 17.3 mph 0.10 in Snow Light Snow
10:15 AM 32.2 °F 23.2 °F 30.9 °F 95% 29.98 in 2.0 mi NNW 11.5 mph 20.7 mph 0.02 in Snow Light Snow
10:35 AM 32.0 °F 22.5 °F 30.7 °F 95% 29.98 in 1.2 mi NNW 12.7 mph 19.6 mph 0.02 in Snow Light Snow
10:55 AM 32.0 °F 25.6 °F 30.7 °F 95% 29.98 in 2.0 mi NNW 6.9 mph - 0.02 in Snow Light Snow
11:15 AM 32.0 °F 22.5 °F 30.6 °F 94% 29.98 in 3.0 mi NNW 12.7 mph 21.9 mph N/A Snow Light Snow
11:35 AM 32.0 °F 22.1 °F 30.2 °F 93% 29.97 in 2.0 mi NNW 13.8 mph 21.9 mph N/A Snow Light Snow
11:55 AM 32.0 °F 22.1 °F 30.0 °F 92% 29.97 in 3.0 mi NNW 13.8 mph 24.2 mph N/A Snow Light Snow
12:15 PM 32.0 °F 22.1 °F 29.8 °F 92% 29.97 in 0.8 mi NNW 13.8 mph 31.1 mph N/A Snow Light Snow
12:55 PM 31.8 °F 23.3 °F 31.1 °F 97% 29.97 in 0.5 mi NNW 10.4 mph 17.3 mph N/A Snow Snow
1:15 PM 31.6 °F 23.7 °F 31.1 °F 98% 29.99 in 0.2 mi NNW 9.2 mph 16.1 mph N/A Snow , Thunderstorm Heavy Thunderstorms and Snow
1:35 PM 32.0 °F 24.2 °F 31.3 °F 97% 30.00 in 0.2 mi NNW 9.2 mph - N/A Snow Heavy Snow
1:55 PM 32.0 °F 24.2 °F 31.6 °F 99% 30.01 in 0.2 mi NNW 9.2 mph - N/A Snow Heavy Snow
2:15 PM 32.0 °F 24.2 °F 31.8 °F 99% 30.03 in 0.5 mi NW 9.2 mph - N/A Snow Snow
2:35 PM 32.4 °F 24.6 °F 32.0 °F 99% 30.04 in 1.5 mi NNW 9.2 mph - N/A Snow Light Snow
2:55 PM 33.1 °F 26.9 °F 32.0 °F 96% 30.06 in 4.0 mi NNW 6.9 mph - N/A   Overcast
3:15 PM 34.7 °F 28.1 °F 32.7 °F 92% 30.08 in 7.0 mi NW 8.1 mph - 0.01 in   Scattered Clouds
3:35 PM 36.3 °F 31.6 °F 32.9 °F 87% 30.10 in 10.0 mi NNW 5.8 mph - 0.01 in   Clear
3:55 PM 37.0 °F 31.6 °F 32.9 °F 85% 30.14 in 10.0 mi NW 6.9 mph - 0.08 in   Scattered Clouds
4:35 PM 37.9 °F 30.5 °F 32.2 °F 80% 30.18 in 10.0 mi NNW 11.5 mph 19.6 mph 0.10 in   Mostly Cloudy
4:55 PM 37.8 °F 30.7 °F 32.5 °F 81% 30.20 in 10.0 mi NNW 10.4 mph 18.4 mph 0.13 in   Mostly Cloudy
5:35 PM 37.9 °F 31.5 °F 32.9 °F 82% 30.25 in 10.0 mi NNW 9.2 mph 20.7 mph N/A   Overcast
6:15 PM 37.9 °F 30.0 °F 32.5 °F 81% 30.26 in 10.0 mi NNW 12.7 mph 18.4 mph N/A   Clear
6:55 PM 37.9 °F 30.5 °F 32.4 °F 80% 30.28 in 10.0 mi NNW 11.5 mph 18.4 mph N/A   Clear
7:55 PM 37.6 °F 32.3 °F 32.2 °F 81% 30.31 in 10.0 mi North 6.9 mph - N/A   Clear
8:15 PM 37.4 °F 29.8 °F 32.2 °F 81% 30.31 in 10.0 mi NNW 11.5 mph - N/A   Clear
8:35 PM 37.4 °F 30.8 °F 32.4 °F 82% 30.32 in 10.0 mi NNW 9.2 mph - N/A   Clear
8:55 PM 37.4 °F 31.4 °F 32.5 °F 83% 30.33 in 10.0 mi NNW 8.1 mph - N/A   Clear
9:15 PM 37.0 °F 31.0 °F 32.5 °F 84% 30.34 in 10.0 mi NW 8.1 mph - N/A   Clear
9:35 PM 36.7 °F 29.9 °F 32.5 °F 85% 30.34 in 10.0 mi NNW 9.2 mph - N/A   Clear
9:55 PM 36.7 °F 32.0 °F 32.4 °F 84% 30.35 in 10.0 mi North 5.8 mph - N/A   Clear
11:15 PM 35.4 °F 29.0 °F 32.0 °F 87% 30.38 in 10.0 mi North 8.1 mph - N/A   Clear
11:35 PM 35.1 °F 28.6 °F 32.0 °F 89% 30.38 in 10.0 mi North 8.1 mph - N/A   Clear
11:55 PM 34.9 °F 27.1 °F 32.0 °F 89% 30.39 in 10.0 mi North 10.4 mph - N/A   Clear